This demonstration page uses our WeatherBlox Daily Observations layout. Learn more.

Left ArrowRight Arrow

Hourly Observations for January 11, 2022

Temp ( °F °C ) Dew Point ( °F °C ) Humidity (%) Winds ( mph kmh ) Pressure ( in mb ) Visibility ( mi km ) Precip ( " mm )
12:51 am 00:51 Clear 39 3.9 33 0.6 79 79 ESE 8 13 30.40 1030 10 16 0.00 0.00
1:51 am 01:51 Clear 38 3.3 33 0.6 83 83 ESE 8 13 30.39 1029 10 16 0.00 0.00
2:51 am 02:51 Clear 35 1.7 32 0 89 89 E 7 11 30.40 1030 10 16 0.00 0.00
3:51 am 03:51 Clear 36 2.2 33 0.6 89 89 E 7 11 30.39 1029 10 16 0.00 0.00
4:51 am 04:51 Clear 35 1.7 33 0.6 93 93 E 8 13 30.38 1029 10 16 0.00 0.00
5:51 am 05:51 Clear 36 2.2 33 0.6 89 89 E 9 15 30.38 1029 10 16 0.00 0.00
7:51 am 07:51 Sunny 38 3.3 30 -1.1 73 73 ESE 10 17 30.41 1030 10 16 0.00 0.00
8:51 am 08:51 Sunny 41 5 32 0 70 70 ESE 14 22 30.41 1030 10 16 0.00 0.00
9:51 am 09:51 Sunny 44 6.7 33 0.6 65 65 E 9 15 30.40 1030 10 16 0.00 0.00
10:51 am 10:51 Sunny 47 8.3 32 0 56 56 SE 9 15 30.40 1030 10 16 0.00 0.00
11:51 am 11:51 Sunny 50 10 32 0 50 50 VRB 5 7 30.37 1028 10 16 0.00 0.00
12:51 pm 12:51 Sunny 53 11.7 32 0 45 45 Calm 30.33 1027 10 16 0.00 0.00
1:51 pm 13:51 Sunny 56 13.3 32 0 40 40 VRB 7 11 30.28 1026 10 16 0.00 0.00
2:51 pm 14:51 Sunny 56 13.3 32 0 40 40 SSE 8 13 30.26 1025 10 16 0.00 0.00
3:51 pm 15:51 Sunny 56 13.3 31 -0.6 39 39 SSW 5 7 30.24 1024 10 16 0.00 0.00
4:51 pm 16:51 Sunny 56 13.3 31 -0.6 39 39 Calm 30.24 1024 10 16 0.00 0.00
5:51 pm 17:51 Clear 48 8.9 32 0 54 54 NNE 7 11 30.27 1025 10 16 0.00 0.00
6:51 pm 18:51 Clear 46 7.8 32 0 58 58 E 8 13 30.29 1026 10 16 0.00 0.00
7:51 pm 19:51 Clear 44 6.7 32 0 63 63 SE 7 11 30.30 1026 10 16 0.00 0.00
8:51 pm 20:51 Clear 43 6.1 32 0 65 65 E 8 13 30.32 1027 10 16 0.00 0.00
9:51 pm 21:51 Clear 42 5.6 32 0 68 68 ESE 5 7 30.34 1027 10 16 0.00 0.00
10:51 pm 22:51 Clear 39 3.9 32 0 76 76 VRB 6 9 30.35 1028 10 16 0.00 0.00
11:51 pm 23:51 Clear 35 1.7 31 -0.6 85 85 Calm 30.35 1028 10 16 0.00 0.00

Powered by AerisWeather